Showing default

RUZAEVKA-390, 61766

Orbit data source: Space-Track

RUZAEVKA-390, 61766 is a payload satellite owned by Saransk PT (CIS) in SSO that was launched on Mon, 04 Nov 2024 UTC via a SOYUZ-2-1B launch vehicle from the Vostochny Cosmodrome (VOSTO). Payload-class satellites include a variety of spacecraft equipped with specific instruments for various scientific and technological missions. These include communications satellites like Starlink; space stations such as the ISS; scientific satellites like the Hubble; Earth observation satellites from companies like Planet Labs, Umbra, and HawkEye 360; GPS; miniature CubeSats for education and research; and military/defense satellites.

Not visible in the next 10 days
Identifier
61766, 2024-199AH
Orbit
SSO
Country
Flag of CISCIS
Related business
Manufacturer
Yugo-Zapad. GU
Mission
Operational Amateur Technology
Bus & Motor
CUBESAT 3U, Unknown motor
Mass
5 kg wet, 5 kg dry
Launch date (UTC)
2024-11-04 (1 year ago)
Launch vehicle
SOYUZ-2-1B
Launch site
Vostochny Cosmodrome (VOSTO)
Object type
Payload
Rocket body
Debris
Shape & HBR
Box, 0.1 m
Radar Cross Section
0.035 m², Small (<0.1 m²)

Expand to show TLE details & history
Last TLE update: 12 hours ago

TLE from 12 hours ago
0 RUZAEVKA-390
1 61766U 24199AH  25312.84247230  .00099378  00000-0  14767-2 0  9997
2 61766  97.3214 184.5038 0007193   5.4988 354.6344 15.54807232100543
Epoch: 2025-11-08T20:13Z
TLE epoch observation values (Epoch: 2025-11-08T20:13:09.606Z)
Latitude
-0.00002°
Longitude
-167.0525°
Altitude
400.996 km
Speed
7.673 km/s
True Right ascension
12h 18m 00s
True Declination
0° 00' 00"
Sunlit
Object was in daylight at epoch
Visualization orbit readout
Latitude
Unknown
Longitude
Unknown
Altitude
Unknown
Speed
Unknown
Apparent Right ascension
Unknown
Apparent Declination
Unknown
Sunlit
N/A
Visualization observer readout
Local Sidereal Time
04:12:04
Azimuth
Unknown
Elevation
Unknown
Doppler factor
Unknown
Orbital elements
Apogee altitude
404.504 km
Perigee altitude
394.754 km
Semi-major axis
6,777.766 km
Eccentricity
0.00072
Inclination
97.3214°
RAAN
184.5038°
Arg. of periapsis
5.4988°
True anomaly
354.62669°
Mean anomaly
354.6344°
Eccentric anomaly
354.63054°
Mean motion
3.88968 °/min
Orbital period
92.55 mins
BSTAR
0.0014767
Loading maneuver chart data...
Computing Atmospheric mass density...
Loading historical data...
Loading historical data...
Loading historical data...
Loading historical data...
Loading historical data...
Loading historical data...
Loading historical data...

Documentation

Showing up to 5 results
|